Weather History for West Yellowstone, MT

Change the Weather History Date:

Monday, November 26, 2012

  Actual Average Record
Temperature  
Mean Temperature 14 °F -  
Max Temperature 28 °F 24 °F 28 °F (2012)
Min Temperature 0 °F 1 °F -16 °F (2011)
Degree Days  
Heating Degree Days 51    
Moisture  
Dew Point -    
Average Humidity    
Maximum Humidity    
Minimum Humidity    
Precipitation  
Precipitation 0.00 in - - ()
Sea Level Pressure  
Sea Level Pressure 30.22 in    
Wind  
Wind Speed 2 mph (SSW)    
Max Wind Speed 16 mph    
Max Gust Speed 21 mph    
Visibility 10 miles    
Events      
Averages and records for this station are not official NWS values.
T = Trace of Precipitation, MM = Missing Value Source: NWS Daily Summary

Daily Weather History Graph

Daily Weather History Graph

Search for Another Location

Airport:

Trip Planner

Search our weather history database for the weather conditions in past years. The results will help you decide how hot, cold, wet, or windy it might be!

Date:

Astronomy

Nov. 26, 2012 Rise Set
Actual Time 7:36 AM MST 4:47 PM MST
Civil Twilight 7:03 AM MST 5:20 PM MST
Nautical Twilight 6:27 AM MST 5:56 PM MST
Astronomical Twilight 5:52 AM MST 6:31 PM MST
Moon 3:43 PM MST (11/26) 5:47 AM MST (11/26)
Length of Visible Light 10h 16m
Length of Day
9h 11m
Waxing Gibbous, 97% of the Moon is Illuminated
Nov 26
Waxing Gibbous
Nov 28
Full
Dec 6
Last Quarter
Dec 13
New
Dec 19
First Quarter

Hourly Weather History & Observations

Time (MST) Temp. Windchill Dew Point Humidity Pressure Visibility Wind Dir Wind Speed Gust Speed Precip Events Conditions
12:10 AM 14.0 °F 8.2 °F - N/A% 30.16 in 10.0 mi SSW 3.5 mph - N/A   Clear
12:30 AM 12.2 °F 6.1 °F - N/A% 30.17 in 10.0 mi South 3.5 mph - N/A   Clear
12:50 AM 10.4 °F 4.0 °F - N/A% 30.17 in 10.0 mi SSW 3.5 mph - N/A   Clear
1:10 AM 10.4 °F 4.0 °F - N/A% 30.18 in 10.0 mi South 3.5 mph - N/A   Clear
1:30 AM 10.4 °F - - N/A% 30.19 in 10.0 mi Calm Calm - N/A   Clear
1:50 AM 6.8 °F - - N/A% 30.19 in 10.0 mi Calm Calm - N/A   Clear
2:10 AM 6.8 °F -0.1 °F - N/A% 30.20 in 10.0 mi SE 3.5 mph - N/A   Clear
2:30 AM 6.8 °F - - N/A% 30.20 in 10.0 mi Calm Calm - N/A   Clear
2:50 AM 6.8 °F - - N/A% 30.21 in 10.0 mi Calm Calm - N/A   Clear
3:10 AM 5.0 °F - - N/A% 30.21 in 10.0 mi Calm Calm - N/A   Clear
3:30 AM 5.0 °F - - N/A% 30.21 in 10.0 mi Calm Calm - N/A   Clear
3:50 AM 5.0 °F - - N/A% 30.22 in 10.0 mi Calm Calm - N/A   Clear
4:10 AM 3.2 °F - - N/A% 30.22 in 10.0 mi Calm Calm - N/A   Clear
4:30 AM 1.4 °F - - N/A% 30.22 in 10.0 mi Calm Calm - N/A   Clear
4:50 AM 1.4 °F -6.2 °F - N/A% 30.22 in 10.0 mi SW 3.5 mph - N/A   Clear
5:10 AM 1.4 °F - - N/A% 30.22 in 10.0 mi Calm Calm - N/A   Clear
5:30 AM 1.4 °F - - N/A% 30.22 in 10.0 mi Calm Calm - N/A   Clear
5:50 AM 1.4 °F - - N/A% 30.22 in 10.0 mi Calm Calm - N/A   Clear
6:10 AM -0.4 °F - - N/A% 30.23 in 10.0 mi Calm Calm - N/A   Clear
6:30 AM -0.4 °F - - N/A% 30.24 in 10.0 mi Calm Calm - N/A   Clear
6:50 AM -0.4 °F - - N/A% 30.24 in 10.0 mi Calm Calm - N/A   Clear
7:10 AM -0.4 °F - - N/A% 30.24 in 10.0 mi Calm Calm - N/A   Clear
7:30 AM -0.4 °F - - N/A% 30.25 in 10.0 mi Calm Calm - N/A   Clear
7:50 AM -0.4 °F - - N/A% 30.25 in 10.0 mi Calm Calm - N/A   Clear
8:10 AM -0.4 °F - - N/A% 30.25 in 10.0 mi Calm Calm - N/A   Clear
8:30 AM 1.4 °F - - N/A% 30.25 in 10.0 mi Calm Calm - N/A   Clear
8:50 AM 1.4 °F - - N/A% 30.25 in 10.0 mi Calm Calm - N/A   Clear
9:10 AM 5.0 °F - - N/A% 30.25 in 10.0 mi Calm Calm - N/A   Clear
9:30 AM 6.8 °F - - N/A% 30.26 in 10.0 mi Calm Calm - N/A   Clear
9:50 AM 8.6 °F - - N/A% 30.26 in 10.0 mi Calm Calm - N/A   Clear
10:10 AM 10.4 °F - - N/A% 30.28 in 10.0 mi Calm Calm - N/A   Clear
10:30 AM 14.0 °F - - N/A% 30.26 in 10.0 mi Calm Calm - N/A   Clear
10:50 AM 15.8 °F - - N/A% 30.26 in 10.0 mi Calm Calm - N/A   Clear
11:10 AM 15.8 °F 8.6 °F - N/A% 30.26 in 10.0 mi ENE 4.6 mph - N/A   Clear
11:30 AM 17.6 °F - - N/A% 30.25 in 10.0 mi Calm Calm - N/A   Clear
11:50 AM 17.6 °F - - N/A% 30.25 in 10.0 mi Calm Calm - N/A   Clear
12:10 PM 19.4 °F 12.8 °F - N/A% 30.23 in 10.0 mi NE 4.6 mph - N/A   Clear
12:30 PM 21.2 °F - - N/A% 30.22 in 10.0 mi Calm Calm - N/A   Clear
12:50 PM 23.0 °F - - N/A% 30.22 in 10.0 mi Calm Calm - N/A   Partly Cloudy
1:10 PM 24.8 °F 20.5 °F - N/A% 30.21 in 10.0 mi SSW 3.5 mph - N/A   Mostly Cloudy
1:30 PM 26.6 °F 18.2 °F - N/A% 30.21 in 10.0 mi SSW 8.1 mph - N/A   Mostly Cloudy
1:50 PM 28.4 °F 17.0 °F - N/A% 30.21 in 10.0 mi SSW 15.0 mph 19.6 mph N/A   Mostly Cloudy
2:10 PM 26.6 °F 14.3 °F - N/A% 30.20 in 10.0 mi SSW 16.1 mph 20.7 mph N/A   Scattered Clouds
2:30 PM 26.6 °F 15.2 °F - N/A% 30.20 in 10.0 mi SW 13.8 mph 18.4 mph N/A   Partly Cloudy
2:50 PM 26.6 °F 18.2 °F - N/A% 30.20 in 10.0 mi SSW 8.1 mph 18.4 mph N/A   Clear
3:10 PM 26.6 °F 16.2 °F - N/A% 30.20 in 10.0 mi SSW 11.5 mph 17.3 mph N/A   Clear
3:30 PM 26.6 °F 18.2 °F - N/A% 30.20 in 10.0 mi SSW 8.1 mph - N/A   Scattered Clouds
3:50 PM 26.6 °F 18.2 °F - N/A% 30.20 in 10.0 mi South 8.1 mph - N/A   Overcast
4:10 PM 26.6 °F 19.1 °F - N/A% 30.20 in 10.0 mi SSW 6.9 mph - N/A   Overcast
4:30 PM 26.6 °F 19.1 °F - N/A% 30.21 in 10.0 mi SSW 6.9 mph - N/A   Overcast
4:50 PM 24.8 °F 16.9 °F - N/A% 30.21 in 10.0 mi SSW 6.9 mph - N/A   Overcast
5:10 PM 24.8 °F 16.9 °F - N/A% 30.20 in 10.0 mi SW 6.9 mph - N/A   Scattered Clouds
5:30 PM 23.0 °F 18.4 °F - N/A% 30.21 in 10.0 mi South 3.5 mph - N/A   Partly Cloudy
5:50 PM 23.0 °F - - N/A% 30.21 in 10.0 mi Calm Calm - N/A   Partly Cloudy
6:10 PM 21.2 °F - - N/A% 30.21 in 10.0 mi Calm Calm - N/A   Clear
6:30 PM 19.4 °F - - N/A% 30.22 in 10.0 mi Calm Calm - N/A   Clear
6:50 PM 17.6 °F - - N/A% 30.21 in 10.0 mi Calm Calm - N/A   Clear
7:10 PM 17.6 °F 12.3 °F - N/A% 30.21 in 10.0 mi South 3.5 mph - N/A   Clear
7:30 PM 17.6 °F - - N/A% 30.21 in 10.0 mi Calm Calm - N/A   Mostly Cloudy
7:50 PM 19.4 °F 14.3 °F - N/A% 30.21 in 10.0 mi SE 3.5 mph - N/A   Scattered Clouds
8:10 PM 17.6 °F - - N/A% 30.21 in 10.0 mi Calm Calm - N/A   Mostly Cloudy
8:30 PM 17.6 °F - - N/A% 30.21 in 10.0 mi Calm Calm - N/A   Overcast
8:50 PM 19.4 °F - - N/A% 30.21 in 10.0 mi Calm Calm - N/A   Mostly Cloudy
9:10 PM 17.6 °F 12.3 °F - N/A% 30.21 in 10.0 mi West 3.5 mph - N/A   Mostly Cloudy
9:30 PM 17.6 °F - - N/A% 30.21 in 10.0 mi Calm Calm - N/A   Overcast
9:50 PM 17.6 °F - - N/A% 30.21 in 10.0 mi Calm Calm - N/A   Overcast
10:10 PM 17.6 °F 12.3 °F - N/A% 30.21 in 10.0 mi West 3.5 mph - N/A   Overcast
10:30 PM 15.8 °F - - N/A% 30.21 in 10.0 mi Calm Calm - N/A   Overcast
10:50 PM 15.8 °F - - N/A% 30.21 in 10.0 mi Calm Calm - N/A   Overcast
11:10 PM 15.8 °F - - N/A% 30.21 in 10.0 mi Calm Calm - N/A   Overcast
11:30 PM 15.8 °F - - N/A% 30.21 in 10.0 mi Calm Calm - N/A   Overcast
11:50 PM 17.6 °F - - N/A% 30.21 in 10.0 mi Calm Calm - N/A   Overcast